Location: Jetmore Motorplex
(37.9889°N, 99.8876°W)
Time: 10:37:28
(UTC+00:00)

Cosmos 292 Rocket - Pass Details

Date: 17 February 2020
Orbit: 674 x 693 km, 74.0° (Epoch: 29 March)

Event Time Altitude Azimuth Distance (km) Brightness Sun altitude
Exits shadow 11:17:57 35° 1° (N) 1,087 4.8 -26.2°
Maximum altitude 11:19:50 64° 70° (ENE) 746 4.1 -25.8°
Drops below altitude 10° 11:24:31 10° 152° (SSE) 2,100 6.5 -24.9°
Sets 11:26:49 0° 156° (SSE) 3,011 7.3 -24.4°
